Showing default

COSMOS 2424 (GLONASS), 29672

Orbit data source: Space-Track

COSMOS 2424 (GLONASS), 29672 is a Commonwealth of Independent States-origin payload satellite in MEO that was launched on Mon, 25 Dec 2006 UTC via a PROTON-K/DM-2 launch vehicle from the Tyuratam Missile And Space Complex (TTMTR). Payloads include a variety of satellites, spacecraft, and rockets equipped with specific instruments for various scientific and technological missions. These include communications satellites like Starlink; space stations such as the ISS; scientific satellites like the Hubble; Earth observation satellites from companies like Planet Labs, Umbra, and HawkEye 360; GPS; miniature CubeSats for education and research; and military/defense satellites.

Loading next visibility...
COSMOS 2424 (GLONASS) details
Identifier
29672, 2006-062C
Orbit
MEO
Last TLE update2 days ago
Origin
Flag of CISKVR/IACG (CIS)
ManufacturerResehetnev ISS
MissionNon-operational Defense Navigation
Bus & MotorURAGAN, Unknown motor
Mass1,450 kg wet, ~1,200 kg dry
Launch date (UTC)
2006-12-25 (18 years ago)
Launch vehicle
PROTON-K/DM-2
Launch site
Tyuratam Missile And Space Complex (TTMTR)
Object type
Payload
Rocket body
Debris
Shape & HBRCyl + 1 Arm + 2 Pan, 7.8 m
Radar Cross Section8.145 m², Large (>1 m²)

Expand to show TLE details & history

TLE from 2 days ago
0 COSMOS 2424 (GLONASS)
1 29672U 06062C   24359.29443597  .00000087  00000-0  00000+0 0  9990
2 29672  64.6937 212.2779 0019397 171.3919 188.7168  2.13122893140075
Epoch: 2024-12-24T07:03Z
Definitive object data (Epoch: 2024-12-24T07:03:59.267Z)
Latitude-0°
Longitude12.98098°
Altitude19,177.696 km
Speed3.946 km/s
True Right ascension14h 09m 07s
True Declination0° 00' 00"
Sunlit
Object was in daylight at TLE epoch
Visualization TLE readout
Latitude-33.19719°
Longitude-149.08885°
Altitude19,104.403 km
Speed3.958 km/s
Apparent Right ascension02h 33m 00s
Apparent Declination-38° 04' 43"
Sunlit
Object is in daylight
Visualization observer readout
Local Sidereal Time10:15:10
Azimuth250.232° W
Elevation-40.999°
Doppler factor1
Orbital elements
Apogee altitude19,177.32 km
Perigee altitude19,078.372 km
Semi-major axis25,505.983 km
Eccentricity0.0019397
Inclination64.6937°
RAAN212.2779°
Arg. of periapsis171.3919°
True anomaly188.68319°
Mean anomaly188.7168°
Eccentric anomaly188.69999°
Mean motion0.53282 °/min
BSTARUnknown
Orbital period675.65 mins
Loading maneuver chart data...
Loading historical data...
Loading historical data...
Loading historical data...
Loading historical data...
Loading historical data...
Loading historical data...
Loading historical data...

COSMOS 2424 (GLONASS) Visibility forecast

Observer location: undefined°, undefined

Span
Click to sort rows by Start time (UTC) header in descending order
Start Az.
Max El. time (UTC)
Max El. Az.
Max El.
End time (UTC)
End Az.
316 mins2024-12-26 14:29:54.851Z188.438° SSW2024-12-26 16:50:54.851Z289.587° WNW44.799°2024-12-26 19:45:54.851Z63.76° ENE
88 mins2024-12-27 05:40:54.851Z334.365° NNW2024-12-27 06:23:54.851Z314.183° NW14.934°2024-12-27 07:08:54.851Z291.987° WNW
|